| time (UTC) | temp F | wind direction | speed MPH | gust MPH | rain 1hr in | rain 24hr in | rain mn in | humidity % | barometer mb |
| 20260507120726 | 55 | 173 | 0.0 | 1.0 | 0.00 | 0.11 | 0.11 | 80 | 1012.3 |
| 20260507120224 | 55 | 60 | 1.0 | 2.0 | 0.00 | 0.11 | 0.11 | 80 | 1012.7 |
| 20260507115719 | 55 | 153 | 0.0 | 0.0 | 0.00 | 0.11 | 0.11 | 80 | 1012.3 |
| 20260507115215 | 55 | 158 | 0.0 | 1.0 | 0.00 | 0.11 | 0.11 | 82 | 1012.2 |
| 20260507114711 | 55 | 93 | 0.0 | 1.0 | 0.00 | 0.11 | 0.11 | 84 | 1012.2 |
| 20260507114209 | 55 | 80 | 0.0 | 2.0 | 0.00 | 0.11 | 0.11 | 87 | 1012.3 |
| 20260507113706 | 55 | 262 | 0.0 | 1.0 | 0.00 | 0.11 | 0.11 | 89 | 1012.0 |
| 20260507113203 | 54 | 262 | 0.0 | 0.0 | 0.00 | 0.11 | 0.11 | 89 | 1011.9 |
| 20260507112700 | 54 | 262 | 0.0 | 0.0 | 0.00 | 0.11 | 0.11 | 90 | 1011.8 |
| 20260507112157 | 54 | 262 | 0.0 | 0.0 | 0.00 | 0.11 | 0.11 | 89 | 1011.9 |
| 20260507111654 | 54 | 262 | 0.0 | 0.0 | 0.00 | 0.11 | 0.11 | 89 | 1012.1 |
| 20260507111151 | 54 | 262 | 0.0 | 0.0 | 0.00 | 0.11 | 0.11 | 89 | 1011.9 |
| 20260507110647 | 54 | 262 | 0.0 | 1.0 | 0.00 | 0.11 | 0.11 | 90 | 1011.6 |
| 20260507110144 | 54 | 262 | 1.0 | 1.0 | 0.00 | 0.11 | 0.11 | 90 | 1011.8 |
| 20260507105641 | 54 | 262 | 0.0 | 0.0 | 0.00 | 0.11 | 0.11 | 90 | 1011.9 |
| 20260507105137 | 54 | 262 | 0.0 | 0.0 | 0.00 | 0.11 | 0.11 | 91 | 1011.9 |
| 20260507104634 | 54 | 262 | 0.0 | 1.0 | 0.00 | 0.11 | 0.11 | 92 | 1011.8 |
| 20260507104130 | 54 | 262 | 0.0 | 0.0 | 0.00 | 0.11 | 0.11 | 92 | 1011.8 |
| 20260507103627 | 54 | 262 | 0.0 | 0.0 | 0.00 | 0.11 | 0.11 | 91 | 1011.8 |
| 20260507103124 | 54 | 262 | 0.0 | 0.0 | 0.00 | 0.11 | 0.11 | 92 | 1011.8 |
| 20260507102620 | 54 | 262 | 0.0 | 0.0 | 0.00 | 0.11 | 0.11 | 91 | 1011.7 |
| 20260507102116 | 54 | 263 | 0.0 | 0.0 | 0.00 | 0.11 | 0.11 | 91 | 1011.7 |
| 20260507101612 | 54 | 262 | 0.0 | 0.0 | 0.00 | 0.11 | 0.11 | 91 | 1011.5 |
| 20260507101108 | 54 | 262 | 0.0 | 0.0 | 0.07 | 0.11 | 0.11 | 91 | 1011.5 |
| 20260507100606 | 54 | 262 | 0.0 | 0.0 | 0.07 | 0.11 | 0.11 | 91 | 1011.5 |
| 20260507100104 | 54 | 262 | 0.0 | 0.0 | 0.00 | 0.10 | 0.10 | 91 | 1011.4 |
| 20260507095601 | 54 | 262 | 0.0 | 0.0 | 0.00 | 0.10 | 0.10 | 91 | 1011.3 |
| 20260507095058 | 54 | 262 | 0.0 | 0.0 | 0.00 | 0.10 | 0.10 | 91 | 1011.3 |
| 20260507094554 | 54 | 262 | 0.0 | 0.0 | 0.00 | 0.10 | 0.10 | 90 | 1011.4 |
| 20260507094051 | 54 | 262 | 0.0 | 0.0 | 0.00 | 0.10 | 0.10 | 91 | 1011.3 |
| 20260507093549 | 54 | 262 | 0.0 | 0.0 | 0.00 | 0.10 | 0.10 | 91 | 1011.4 |
| 20260507093047 | 54 | 262 | 0.0 | 0.0 | 0.00 | 0.10 | 0.10 | 90 | 1011.3 |
| 20260507092543 | 54 | 220 | 0.0 | 0.0 | 0.00 | 0.10 | 0.10 | 90 | 1011.2 |
| 20260507092040 | 54 | 183 | 0.0 | 0.0 | 0.00 | 0.10 | 0.10 | 90 | 1011.1 |
| 20260507091537 | 54 | 183 | 0.0 | 0.0 | 0.00 | 0.10 | 0.10 | 90 | 1011.1 |
| 20260507091033 | 54 | 182 | 0.0 | 0.0 | 0.00 | 0.10 | 0.10 | 90 | 1011.1 |
| 20260507090529 | 54 | 272 | 0.0 | 1.0 | 0.00 | 0.10 | 0.10 | 89 | 1011.3 |
| 20260507090026 | 54 | 277 | 0.0 | 1.0 | 0.00 | 0.10 | 0.10 | 90 | 1011.2 |
| 20260507085523 | 55 | 290 | 0.0 | 0.0 | 0.00 | 0.10 | 0.10 | 91 | 1011.1 |
| 20260507085020 | 55 | 278 | 0.0 | 0.0 | 0.00 | 0.10 | 0.10 | 92 | 1011.1 |
| 20260507084516 | 55 | 280 | 0.0 | 1.0 | 0.00 | 0.10 | 0.10 | 92 | 1011.0 |
| 20260507084013 | 55 | 306 | 0.0 | 0.0 | 0.00 | 0.10 | 0.10 | 92 | 1010.9 |
| 20260507083509 | 55 | 306 | 0.0 | 0.0 | 0.00 | 0.10 | 0.10 | 91 | 1011.1 |
| 20260507083007 | 55 | 306 | 0.0 | 0.0 | 0.00 | 0.10 | 0.10 | 91 | 1011.2 |
| 20260507082503 | 55 | 306 | 0.0 | 0.0 | 0.00 | 0.10 | 0.10 | 91 | 1011.2 |
| 20260507081959 | 55 | 306 | 0.0 | 0.0 | 0.00 | 0.10 | 0.10 | 90 | 1011.1 |
| 20260507081455 | 55 | 306 | 0.0 | 1.0 | 0.00 | 0.10 | 0.10 | 90 | 1010.7 |
| 20260507080952 | 55 | 328 | 0.0 | 0.0 | 0.00 | 0.10 | 0.10 | 90 | 1010.8 |
| 20260507080448 | 55 | 356 | 0.0 | 0.0 | 0.00 | 0.10 | 0.10 | 89 | 1010.5 |
| 20260507075943 | 55 | 356 | 0.0 | 1.0 | 0.05 | 0.10 | 0.10 | 89 | 1010.5 |
| 20260507075440 | 55 | 352 | 0.0 | 0.0 | 0.12 | 0.10 | 0.10 | 88 | 1010.7 |
| 20260507074937 | 55 | 289 | 0.0 | 1.0 | 0.07 | 0.09 | 0.09 | 88 | 1010.4 |
| 20260507074433 | 56 | 289 | 1.0 | 1.0 | 0.00 | 0.08 | 0.08 | 88 | 1010.5 |
| 20260507073932 | 56 | 135 | 0.0 | 1.0 | 0.00 | 0.08 | 0.08 | 87 | 1010.4 |
| 20260507073428 | 56 | 245 | 0.0 | 1.0 | 0.00 | 0.08 | 0.08 | 87 | 1010.2 |
| 20260507072925 | 56 | 90 | 0.0 | 1.0 | 0.00 | 0.08 | 0.08 | 87 | 1010.1 |
| 20260507072422 | 56 | 54 | 1.0 | 2.0 | 0.00 | 0.08 | 0.08 | 87 | 1010.0 |
| 20260507071920 | 56 | 266 | 1.0 | 2.0 | 0.00 | 0.08 | 0.08 | 88 | 1010.2 |
| 20260507071416 | 56 | 285 | 0.0 | 0.0 | 0.00 | 0.08 | 0.08 | 88 | 1010.4 |
| 20260507070913 | 56 | 0 | 0.0 | 1.0 | 0.00 | 0.08 | 0.08 | 88 | 1010.2 |
| 20260507070410 | 56 | 262 | 0.0 | 1.0 | 0.00 | 0.08 | 0.08 | 89 | 1010.0 |
| 20260507065907 | 56 | 235 | 1.0 | 2.0 | 0.00 | 0.08 | 0.08 | 89 | 1010.4 |
| 20260507065404 | 56 | 85 | 0.0 | 0.0 | 0.00 | 0.08 | 0.08 | 89 | 1010.3 |
| 20260507064900 | 56 | 134 | 0.0 | 1.0 | 0.00 | 0.08 | 0.08 | 89 | 1010.0 |
| 20260507064359 | 56 | 137 | 1.0 | 1.0 | 0.00 | 0.08 | 0.08 | 89 | 1010.2 |
| 20260507063856 | 56 | 346 | 0.0 | 1.0 | 0.00 | 0.08 | 0.08 | 89 | 1010.4 |
| 20260507063353 | 56 | 36 | 0.0 | 1.0 | 0.00 | 0.08 | 0.08 | 89 | 1010.2 |
| 20260507062850 | 56 | 281 | 0.0 | 1.0 | 0.00 | 0.08 | 0.08 | 89 | 1010.2 |
| 20260507062347 | 56 | 280 | 1.0 | 1.0 | 0.00 | 0.08 | 0.08 | 89 | 1010.5 |
| 20260507061845 | 56 | 260 | 0.0 | 2.0 | 0.00 | 0.08 | 0.08 | 89 | 1010.0 |
| 20260507061343 | 56 | 180 | 0.0 | 1.0 | 0.00 | 0.08 | 0.08 | 89 | 1010.0 |
| 20260507060841 | 56 | 171 | 0.0 | 1.0 | 0.00 | 0.08 | 0.08 | 89 | 1010.1 |
| 20260507060337 | 56 | 226 | 0.0 | 1.0 | 0.00 | 0.08 | 0.08 | 89 | 1010.3 |
| 20260507055834 | 56 | 38 | 1.0 | 2.0 | 0.05 | 0.08 | 0.08 | 88 | 1009.7 |
| 20260507055329 | 57 | 214 | 0.0 | 3.0 | 0.05 | 0.08 | 0.08 | 88 | 1009.8 |
| 20260507054826 | 57 | 94 | 1.0 | 1.0 | 0.00 | 0.07 | 0.07 | 88 | 1010.1 |
| 20260507054322 | 57 | 281 | 0.0 | 1.0 | 0.07 | 0.07 | 0.07 | 87 | 1010.4 |
| 20260507053820 | 57 | 272 | 0.0 | 1.0 | 0.07 | 0.07 | 0.07 | 87 | 1010.3 |
| 20260507053317 | 57 | 259 | 1.0 | 1.0 | 0.00 | 0.06 | 0.06 | 87 | 1010.4 |
| 20260507052816 | 57 | 135 | 0.0 | 1.0 | 0.00 | 0.06 | 0.06 | 86 | 1010.0 |
| 20260507052312 | 57 | 248 | 0.0 | 1.0 | 0.00 | 0.06 | 0.06 | 87 | 1010.4 |
| 20260507051810 | 58 | 148 | 0.0 | 1.0 | 0.00 | 0.06 | 0.06 | 86 | 1009.6 |
| 20260507051307 | 58 | 48 | 0.0 | 1.0 | 0.00 | 0.06 | 0.06 | 86 | 1010.1 |
| 20260507050804 | 58 | 240 | 0.0 | 1.0 | 0.00 | 0.06 | 0.06 | 86 | 1010.0 |
| 20260507050300 | 58 | 305 | 1.0 | 2.0 | 0.00 | 0.06 | 0.06 | 87 | 1010.4 |
| 20260507045757 | 58 | 47 | 1.0 | 2.0 | 0.00 | 0.06 | 0.06 | 87 | 1010.3 |
| 20260507045253 | 58 | 92 | 0.0 | 2.0 | 0.00 | 0.06 | 0.06 | 86 | 1010.1 |
| 20260507044751 | 59 | 155 | 0.0 | 1.0 | 0.05 | 0.06 | 0.06 | 88 | 1010.0 |
| 20260507044247 | 59 | 291 | 1.0 | 2.0 | 0.17 | 0.06 | 0.06 | 87 | 1010.9 |
| 20260507043743 | 59 | 284 | 0.0 | 0.0 | 0.19 | 0.05 | 0.05 | 86 | 1010.0 |
| 20260507043240 | 60 | 284 | 0.0 | 0.0 | 0.12 | 0.03 | 0.03 | 83 | 1010.4 |
| 20260507042736 | 61 | 263 | 0.0 | 1.0 | 0.12 | 0.02 | 0.02 | 78 | 1010.6 |
| 20260507042232 | 62 | 266 | 0.0 | 1.0 | 0.07 | 0.01 | 0.01 | 75 | 1010.7 |
| 20260507041730 | 62 | 292 | 1.0 | 1.0 | 0.00 | 0.00 | 0.00 | 71 | 1010.4 |
| 20260507041226 | 62 | 46 | 0.0 | 2.0 | 0.00 | 0.00 | 0.00 | 72 | 1010.5 |
| 20260507040723 | 62 | 254 | 1.0 | 3.0 | 0.00 | 0.00 | 0.00 | 72 | 1010.3 |
| 20260507040219 | 62 | 240 | 1.0 | 2.0 | 0.00 | 0.00 | 0.00 | 72 | 1010.4 |
| 20260507035715 | 62 | 261 | 1.0 | 1.0 | 0.00 | 0.28 | 0.28 | 73 | 1010.2 |
| 20260507035211 | 63 | 243 | 2.0 | 2.0 | 0.00 | 0.28 | 0.28 | 73 | 1009.9 |
| 20260507034708 | 63 | 143 | 0.0 | 2.0 | 0.00 | 0.28 | 0.28 | 71 | 1009.7 |
| 20260507034206 | 63 | 195 | 0.0 | 2.0 | 0.00 | 0.28 | 0.28 | 70 | 1010.0 |
| 20260507033704 | 64 | 258 | 1.0 | 3.0 | 0.00 | 0.28 | 0.28 | 70 | 1009.8 |
| 20260507033201 | 64 | 346 | 2.0 | 8.0 | 0.00 | 0.28 | 0.28 | 69 | 1010.1 |
| 20260507032658 | 64 | 265 | 5.0 | 6.0 | 0.00 | 0.28 | 0.28 | 69 | 1009.7 |
| 20260507032153 | 64 | 204 | 0.0 | 2.0 | 0.00 | 0.28 | 0.28 | 70 | 1009.8 |
| 20260507031651 | 64 | 273 | 2.0 | 3.0 | 0.00 | 0.28 | 0.28 | 70 | 1009.9 |
| 20260507031147 | 64 | 288 | 1.0 | 2.0 | 0.00 | 0.28 | 0.28 | 70 | 1009.9 |
| 20260507030644 | 64 | 248 | 0.0 | 1.0 | 0.00 | 0.28 | 0.28 | 70 | 1009.3 |
| 20260507030142 | 64 | 38 | 2.0 | 4.0 | 0.00 | 0.28 | 0.28 | 71 | 1009.2 |
| 20260507025639 | 65 | 0 | 0.0 | 3.0 | 0.00 | 0.28 | 0.28 | 72 | 1009.3 |
| 20260507025136 | 65 | 22 | 2.0 | 3.0 | 0.00 | 0.28 | 0.28 | 73 | 1009.4 |
| 20260507024634 | 65 | 132 | 0.0 | 1.0 | 0.00 | 0.28 | 0.28 | 74 | 1009.4 |
| 20260507024131 | 66 | 273 | 0.0 | 1.0 | 0.00 | 0.28 | 0.28 | 76 | 1009.3 |
| 20260507023626 | 66 | 171 | 0.0 | 1.0 | 0.00 | 0.28 | 0.28 | 77 | 1009.4 |
| 20260507023124 | 66 | 292 | 2.0 | 3.0 | 0.00 | 0.28 | 0.28 | 77 | 1009.2 |
| 20260507022621 | 66 | 298 | 0.0 | 1.0 | 0.00 | 0.28 | 0.28 | 79 | 1008.9 |
| 20260507022116 | 66 | 73 | 1.0 | 2.0 | 0.00 | 0.28 | 0.28 | 80 | 1009.2 |
| 20260507021612 | 67 | 344 | 0.0 | 1.0 | 0.00 | 0.28 | 0.28 | 81 | 1008.7 |
| 20260507021108 | 67 | 257 | 1.0 | 2.0 | 0.00 | 0.28 | 0.28 | 81 | 1008.9 |
| 20260507020607 | 67 | 72 | 1.0 | 1.0 | 0.00 | 0.28 | 0.28 | 82 | 1008.9 |
| 20260507015602 | 67 | 278 | 0.0 | 0.0 | 0.00 | 0.28 | 0.28 | 82 | 1008.9 |
| 20260507015058 | 67 | 238 | 0.0 | 0.0 | 0.00 | 0.28 | 0.28 | 83 | 1008.8 |
| 20260507014555 | 67 | 238 | 0.0 | 1.0 | 0.00 | 0.28 | 0.28 | 83 | 1009.0 |
| 20260507014050 | 67 | 238 | 0.0 | 0.0 | 0.00 | 0.28 | 0.28 | 83 | 1008.6 |
| 20260507013548 | 67 | 238 | 0.0 | 0.0 | 0.00 | 0.28 | 0.28 | 83 | 1008.7 |
| 20260507013045 | 66 | 238 | 0.0 | 0.0 | 0.00 | 0.28 | 0.28 | 84 | 1008.8 |
| 20260507012542 | 66 | 238 | 0.0 | 0.0 | 0.00 | 0.28 | 0.28 | 84 | 1009.0 |
| 20260507012038 | 66 | 238 | 0.0 | 0.0 | 0.00 | 0.28 | 0.28 | 84 | 1009.0 |
| 20260507011536 | 66 | 238 | 0.0 | 0.0 | 0.00 | 0.28 | 0.28 | 84 | 1008.9 |
| 20260507011031 | 66 | 238 | 0.0 | 0.0 | 0.00 | 0.28 | 0.28 | 84 | 1009.1 |
| 20260507010526 | 66 | 238 | 0.0 | 0.0 | 0.00 | 0.28 | 0.28 | 84 | 1009.0 |
| 20260507010023 | 66 | 238 | 0.0 | 0.0 | 0.00 | 0.28 | 0.28 | 84 | 1009.2 |
| 20260507005520 | 66 | 238 | 0.0 | 0.0 | 0.00 | 0.28 | 0.28 | 84 | 1008.9 |
| 20260507005017 | 66 | 238 | 0.0 | 0.0 | 0.00 | 0.28 | 0.28 | 83 | 1009.1 |
| 20260507004514 | 66 | 238 | 0.0 | 0.0 | 0.00 | 0.28 | 0.28 | 83 | 1008.9 |
| 20260507004011 | 66 | 238 | 0.0 | 0.0 | 0.00 | 0.28 | 0.28 | 83 | 1008.8 |
| 20260507003506 | 66 | 238 | 0.0 | 0.0 | 0.00 | 0.28 | 0.28 | 83 | 1008.9 |
| 20260507003001 | 66 | 238 | 0.0 | 0.0 | 0.00 | 0.28 | 0.28 | 83 | 1008.8 |
| 20260507002458 | 67 | 238 | 0.0 | 0.0 | 0.00 | 0.28 | 0.28 | 82 | 1008.9 |
| 20260507001955 | 67 | 238 | 0.0 | 0.0 | 0.00 | 0.28 | 0.28 | 80 | 1008.8 |
| 20260507001451 | 68 | 238 | 0.0 | 0.0 | 0.00 | 0.28 | 0.28 | 80 | 1008.5 |
| 20260507000949 | 68 | 238 | 0.0 | 0.0 | 0.00 | 0.28 | 0.28 | 79 | 1008.8 |
| 20260507000444 | 69 | 238 | 0.0 | 0.0 | 0.00 | 0.28 | 0.28 | 78 | 1008.3 |
| 20260506235940 | 69 | 238 | 0.0 | 0.0 | 0.00 | 0.28 | 0.28 | 75 | 1008.5 |
| 20260506235438 | 69 | 238 | 0.0 | 0.0 | 0.00 | 0.28 | 0.28 | 75 | 1008.3 |
| 20260506234933 | 69 | 238 | 0.0 | 0.0 | 0.00 | 0.28 | 0.28 | 74 | 1008.4 |
| 20260506234431 | 69 | 238 | 0.0 | 0.0 | 0.00 | 0.28 | 0.28 | 74 | 1008.2 |
| 20260506233929 | 69 | 235 | 0.0 | 0.0 | 0.00 | 0.28 | 0.28 | 73 | 1008.1 |
| 20260506233425 | 69 | 218 | 0.0 | 1.0 | 0.00 | 0.28 | 0.28 | 73 | 1007.9 |
| 20260506232921 | 69 | 273 | 1.0 | 2.0 | 0.00 | 0.28 | 0.28 | 73 | 1008.1 |
| 20260506232418 | 69 | 271 | 0.0 | 0.0 | 0.00 | 0.28 | 0.28 | 73 | 1007.9 |
| 20260506231914 | 69 | 272 | 0.0 | 1.0 | 0.00 | 0.28 | 0.28 | 73 | 1008.2 |
| 20260506231411 | 69 | 276 | 1.0 | 4.0 | 0.00 | 0.28 | 0.28 | 72 | 1007.8 |
| 20260506230909 | 69 | 300 | 1.0 | 1.0 | 0.00 | 0.28 | 0.28 | 73 | 1007.9 |
| 20260506230405 | 70 | 292 | 0.0 | 4.0 | 0.00 | 0.28 | 0.28 | 72 | 1007.8 |
| 20260506225901 | 70 | 216 | 0.0 | 2.0 | 0.00 | 0.28 | 0.28 | 72 | 1007.8 |
| 20260506225359 | 70 | 284 | 1.0 | 2.0 | 0.00 | 0.28 | 0.28 | 71 | 1007.8 |
| 20260506224855 | 70 | 270 | 1.0 | 2.0 | 0.00 | 0.28 | 0.28 | 71 | 1007.8 |
| 20260506224353 | 70 | 269 | 1.0 | 2.0 | 0.00 | 0.28 | 0.28 | 71 | 1007.9 |
| 20260506223849 | 70 | 332 | 1.0 | 1.0 | 0.00 | 0.28 | 0.28 | 72 | 1007.9 |
| 20260506223344 | 70 | 298 | 3.0 | 4.0 | 0.00 | 0.28 | 0.28 | 71 | 1007.9 |
| 20260506222842 | 70 | 248 | 1.0 | 4.0 | 0.00 | 0.28 | 0.28 | 71 | 1008.0 |
| 20260506222337 | 70 | 81 | 1.0 | 3.0 | 0.00 | 0.28 | 0.28 | 71 | 1007.7 |
| 20260506221835 | 70 | 341 | 2.0 | 3.0 | 0.00 | 0.28 | 0.28 | 70 | 1007.8 |
| 20260506221333 | 71 | 254 | 1.0 | 2.0 | 0.00 | 0.28 | 0.28 | 69 | 1007.8 |
| 20260506220830 | 71 | 275 | 0.0 | 3.0 | 0.00 | 0.28 | 0.28 | 70 | 1007.9 |
| 20260506220325 | 70 | 236 | 0.0 | 0.0 | 0.00 | 0.28 | 0.28 | 72 | 1007.7 |
| 20260506215822 | 70 | 95 | 0.0 | 1.0 | 0.00 | 0.28 | 0.28 | 72 | 1007.8 |
| 20260506215318 | 70 | 204 | 0.0 | 4.0 | 0.00 | 0.28 | 0.28 | 70 | 1008.0 |
| 20260506214814 | 71 | 273 | 1.0 | 2.0 | 0.00 | 0.28 | 0.28 | 70 | 1007.7 |
| 20260506214311 | 71 | 238 | 4.0 | 6.0 | 0.00 | 0.28 | 0.28 | 69 | 1008.1 |
| 20260506213810 | 71 | 260 | 2.0 | 3.0 | 0.00 | 0.28 | 0.28 | 68 | 1008.1 |
| 20260506213306 | 72 | 297 | 3.0 | 4.0 | 0.00 | 0.28 | 0.28 | 67 | 1008.0 |
| 20260506212804 | 71 | 220 | 1.0 | 3.0 | 0.00 | 0.28 | 0.28 | 69 | 1007.7 |
| 20260506212259 | 71 | 228 | 2.0 | 6.0 | 0.00 | 0.28 | 0.28 | 68 | 1007.9 |
| 20260506211754 | 72 | 268 | 2.0 | 9.0 | 0.00 | 0.28 | 0.28 | 68 | 1007.7 |
| 20260506211251 | 72 | 49 | 0.0 | 2.0 | 0.00 | 0.28 | 0.28 | 69 | 1007.5 |
| 20260506210748 | 72 | 290 | 2.0 | 2.0 | 0.00 | 0.28 | 0.28 | 69 | 1007.6 |
| 20260506210245 | 71 | 327 | 2.0 | 4.0 | 0.00 | 0.28 | 0.28 | 68 | 1007.7 |
| 20260506205742 | 71 | 259 | 3.0 | 4.0 | 0.00 | 0.28 | 0.28 | 68 | 1007.6 |
| 20260506205237 | 71 | 184 | 2.0 | 2.0 | 0.00 | 0.28 | 0.28 | 69 | 1007.5 |
| 20260506204735 | 71 | 279 | 1.0 | 9.0 | 0.00 | 0.28 | 0.28 | 68 | 1007.5 |
| 20260506204232 | 71 | 319 | 4.0 | 6.0 | 0.00 | 0.28 | 0.28 | 69 | 1007.2 |
| 20260506203730 | 70 | 200 | 2.0 | 7.0 | 0.00 | 0.28 | 0.28 | 70 | 1007.2 |
| 20260506203226 | 70 | 221 | 1.0 | 7.0 | 0.00 | 0.28 | 0.28 | 70 | 1007.2 |
| 20260506202724 | 71 | 306 | 4.0 | 8.0 | 0.00 | 0.28 | 0.28 | 69 | 1007.4 |
| 20260506202221 | 70 | 218 | 3.0 | 6.0 | 0.00 | 0.28 | 0.28 | 69 | 1007.4 |
| 20260506201717 | 70 | 88 | 2.0 | 3.0 | 0.00 | 0.28 | 0.28 | 70 | 1007.3 |
| 20260506201214 | 70 | 237 | 1.0 | 8.0 | 0.00 | 0.28 | 0.28 | 72 | 1007.5 |
| 20260506200711 | 70 | 183 | 3.0 | 7.0 | 0.00 | 0.28 | 0.28 | 71 | 1007.7 |
| 20260506200208 | 70 | 208 | 1.0 | 4.0 | 0.00 | 0.28 | 0.28 | 72 | 1007.7 |
| 20260506195705 | 70 | 189 | 1.0 | 4.0 | 0.00 | 0.28 | 0.28 | 72 | 1007.4 |
| 20260506195201 | 70 | 136 | 4.0 | 14.0 | 0.00 | 0.28 | 0.28 | 71 | 1007.5 |
| 20260506194658 | 70 | 266 | 2.0 | 3.0 | 0.00 | 0.28 | 0.28 | 74 | 1007.5 |
| 20260506194154 | 70 | 122 | 0.0 | 2.0 | 0.00 | 0.28 | 0.28 | 74 | 1007.5 |
| 20260506193652 | 69 | 275 | 2.0 | 9.0 | 0.00 | 0.28 | 0.28 | 74 | 1007.7 |
| 20260506193149 | 69 | 118 | 0.0 | 4.0 | 0.00 | 0.28 | 0.28 | 74 | 1007.5 |
| 20260506192646 | 69 | 313 | 2.0 | 6.0 | 0.00 | 0.28 | 0.28 | 73 | 1007.7 |
| 20260506192142 | 69 | 128 | 2.0 | 4.0 | 0.00 | 0.28 | 0.28 | 74 | 1007.6 |
| 20260506191639 | 69 | 56 | 1.0 | 2.0 | 0.00 | 0.28 | 0.28 | 74 | 1007.5 |
| 20260506191135 | 69 | 263 | 1.0 | 6.0 | 0.00 | 0.28 | 0.28 | 75 | 1007.8 |
| 20260506190633 | 69 | 123 | 1.0 | 6.0 | 0.00 | 0.28 | 0.28 | 74 | 1008.1 |
| 20260506190129 | 68 | 240 | 0.0 | 6.0 | 0.00 | 0.28 | 0.28 | 74 | 1008.1 |
| 20260506185626 | 68 | 266 | 1.0 | 3.0 | 0.00 | 0.28 | 0.28 | 75 | 1008.1 |
| 20260506185122 | 68 | 104 | 2.0 | 3.0 | 0.00 | 0.28 | 0.28 | 74 | 1007.9 |
| 20260506184620 | 69 | 262 | 2.0 | 2.0 | 0.00 | 0.28 | 0.28 | 73 | 1008.6 |
| 20260506184117 | 69 | 178 | 0.0 | 3.0 | 0.00 | 0.28 | 0.28 | 74 | 1008.3 |
| 20260506183614 | 68 | 315 | 0.0 | 3.0 | 0.00 | 0.28 | 0.28 | 75 | 1008.1 |
| 20260506183110 | 68 | 235 | 3.0 | 6.0 | 0.00 | 0.28 | 0.28 | 74 | 1008.2 |
| 20260506182608 | 68 | 260 | 1.0 | 4.0 | 0.00 | 0.28 | 0.28 | 75 | 1008.4 |
| 20260506182104 | 68 | 98 | 3.0 | 4.0 | 0.00 | 0.28 | 0.28 | 74 | 1008.6 |
| 20260506181602 | 68 | 178 | 1.0 | 2.0 | 0.00 | 0.28 | 0.28 | 75 | 1008.4 |
| 20260506181059 | 68 | 260 | 1.0 | 3.0 | 0.00 | 0.28 | 0.28 | 75 | 1008.4 |
| 20260506180555 | 68 | 187 | 1.0 | 6.0 | 0.00 | 0.28 | 0.28 | 74 | 1008.4 |
| 20260506180052 | 68 | 353 | 1.0 | 2.0 | 0.00 | 0.28 | 0.28 | 74 | 1008.4 |
| 20260506175548 | 68 | 129 | 1.0 | 4.0 | 0.00 | 0.28 | 0.28 | 75 | 1008.6 |
| 20260506175045 | 68 | 267 | 2.0 | 7.0 | 0.00 | 0.28 | 0.28 | 75 | 1008.4 |
| 20260506174544 | 67 | 263 | 3.0 | 8.0 | 0.00 | 0.28 | 0.28 | 76 | 1008.6 |
| 20260506174039 | 67 | 5 | 0.0 | 2.0 | 0.00 | 0.28 | 0.28 | 77 | 1008.5 |
| 20260506173537 | 66 | 277 | 2.0 | 4.0 | 0.00 | 0.28 | 0.28 | 78 | 1008.6 |
| 20260506173034 | 66 | 205 | 3.0 | 4.0 | 0.00 | 0.28 | 0.28 | 78 | 1008.7 |
| 20260506172531 | 66 | 106 | 2.0 | 4.0 | 0.00 | 0.28 | 0.28 | 80 | 1008.7 |
| 20260506172027 | 66 | 212 | 2.0 | 2.0 | 0.00 | 0.28 | 0.28 | 79 | 1008.5 |
| 20260506171525 | 65 | 271 | 2.0 | 2.0 | 0.00 | 0.28 | 0.28 | 80 | 1008.7 |
| 20260506171022 | 65 | 93 | 1.0 | 2.0 | 0.00 | 0.28 | 0.28 | 81 | 1008.9 |
| 20260506170520 | 65 | 113 | 1.0 | 2.0 | 0.00 | 0.28 | 0.28 | 80 | 1009.0 |
| 20260506170018 | 65 | 237 | 2.0 | 11.0 | 0.00 | 0.28 | 0.28 | 80 | 1008.9 |
| 20260506165516 | 65 | 335 | 2.0 | 6.0 | 0.00 | 0.28 | 0.28 | 81 | 1008.9 |
| 20260506165011 | 65 | 231 | 0.0 | 3.0 | 0.00 | 0.28 | 0.28 | 84 | 1009.0 |
| 20260506164508 | 65 | 305 | 2.0 | 4.0 | 0.00 | 0.28 | 0.28 | 83 | 1008.7 |
| 20260506164006 | 65 | 304 | 1.0 | 4.0 | 0.00 | 0.28 | 0.28 | 83 | 1009.1 |
| 20260506163501 | 65 | 124 | 1.0 | 2.0 | 0.00 | 0.28 | 0.28 | 85 | 1009.0 |
| 20260506162956 | 64 | 250 | 2.0 | 4.0 | 0.00 | 0.28 | 0.28 | 86 | 1009.0 |
| 20260506162454 | 64 | 302 | 2.0 | 4.0 | 0.00 | 0.28 | 0.28 | 88 | 1008.9 |
| 20260506161951 | 63 | 199 | 1.0 | 6.0 | 0.00 | 0.28 | 0.28 | 88 | 1009.3 |
| 20260506161449 | 63 | 130 | 0.0 | 2.0 | 0.00 | 0.28 | 0.28 | 88 | 1009.1 |
| 20260506160946 | 63 | 160 | 1.0 | 6.0 | 0.00 | 0.28 | 0.28 | 89 | 1009.2 |
| 20260506160443 | 63 | 236 | 1.0 | 2.0 | 0.00 | 0.28 | 0.28 | 88 | 1009.3 |
| 20260506155940 | 63 | 354 | 2.0 | 2.0 | 0.00 | 0.28 | 0.28 | 89 | 1009.1 |
| 20260506155438 | 63 | 223 | 0.0 | 1.0 | 0.00 | 0.28 | 0.28 | 89 | 1009.4 |
| 20260506153605 | 62 | 31 | 1.0 | 2.0 | 0.00 | 0.28 | 0.28 | 91 | 1009.4 |
| 20260506153102 | 62 | 90 | 1.0 | 3.0 | 0.00 | 0.28 | 0.28 | 91 | 1009.6 |
| 20260506152559 | 62 | 101 | 2.0 | 2.0 | 0.00 | 0.28 | 0.28 | 91 | 1009.4 |
| 20260506152057 | 61 | 157 | 0.0 | 4.0 | 0.07 | 0.28 | 0.28 | 92 | 1009.2 |
| 20260506151555 | 61 | 57 | 1.0 | 1.0 | 0.12 | 0.28 | 0.28 | 92 | 1009.5 |
| 20260506151052 | 61 | 88 | 1.0 | 1.0 | 0.12 | 0.27 | 0.27 | 92 | 1009.6 |
| 20260506150548 | 61 | 116 | 1.0 | 2.0 | 0.19 | 0.26 | 0.26 | 91 | 1009.8 |
| 20260506150045 | 61 | 92 | 1.0 | 2.0 | 0.07 | 0.24 | 0.24 | 91 | 1009.7 |
| 20260506145541 | 61 | 80 | 1.0 | 3.0 | 0.05 | 0.23 | 0.23 | 91 | 1010.0 |
| 20260506145039 | 61 | 170 | 0.0 | 2.0 | 0.05 | 0.23 | 0.23 | 90 | 1010.0 |
| 20260506144536 | 61 | 244 | 0.0 | 4.0 | 0.07 | 0.22 | 0.22 | 91 | 1010.1 |
| 20260506144033 | 61 | 253 | 1.0 | 2.0 | 0.05 | 0.21 | 0.21 | 90 | 1010.3 |
| 20260506143531 | 61 | 186 | 0.0 | 1.0 | 0.00 | 0.20 | 0.20 | 91 | 1010.1 |
| 20260506143029 | 61 | 151 | 1.0 | 1.0 | 0.00 | 0.20 | 0.20 | 91 | 1010.2 |
| 20260506142526 | 61 | 118 | 1.0 | 2.0 | 0.07 | 0.20 | 0.20 | 92 | 1010.2 |
| 20260506142024 | 61 | 106 | 0.0 | 1.0 | 0.05 | 0.19 | 0.19 | 92 | 1010.2 |
| 20260506141522 | 61 | 117 | 1.0 | 2.0 | 0.12 | 0.19 | 0.19 | 91 | 1010.2 |
| 20260506141020 | 61 | 312 | 1.0 | 2.0 | 0.19 | 0.18 | 0.18 | 91 | 1010.2 |
| 20260506140517 | 61 | 88 | 0.0 | 1.0 | 0.19 | 0.17 | 0.17 | 91 | 1009.8 |
| 20260506140014 | 61 | 54 | 1.0 | 1.0 | 0.12 | 0.15 | 0.15 | 91 | 1010.0 |
| 20260506135511 | 61 | 101 | 0.0 | 1.0 | 0.17 | 0.14 | 0.14 | 90 | 1010.0 |
| 20260506135007 | 61 | 86 | 1.0 | 1.0 | 0.24 | 0.13 | 0.13 | 90 | 1010.1 |
| 20260506134503 | 61 | 91 | 0.0 | 2.0 | 0.19 | 0.11 | 0.11 | 89 | 1010.1 |
| 20260506134000 | 61 | 333 | 0.0 | 1.0 | 0.07 | 0.09 | 0.09 | 89 | 1010.2 |
| 20260506133457 | 62 | 280 | 1.0 | 1.0 | 0.12 | 0.08 | 0.08 | 88 | 1010.1 |
| 20260506132954 | 62 | 281 | 0.0 | 1.0 | 0.12 | 0.07 | 0.07 | 87 | 1010.3 |
| 20260506132451 | 62 | 86 | 0.0 | 1.0 | 0.19 | 0.06 | 0.06 | 87 | 1010.5 |
| 20260506131948 | 62 | 87 | 0.0 | 1.0 | 0.12 | 0.04 | 0.04 | 86 | 1010.7 |
| 20260506131445 | 62 | 271 | 0.0 | 2.0 | 0.05 | 0.03 | 0.03 | 84 | 1010.5 |
| 20260506130942 | 62 | 265 | 0.0 | 3.0 | 0.00 | 0.02 | 0.02 | 84 | 1010.4 |
| 20260506130438 | 62 | 213 | 0.0 | 0.0 | 0.00 | 0.02 | 0.02 | 84 | 1010.2 |
| 20260506125936 | 63 | 268 | 1.0 | 2.0 | 0.00 | 0.02 | 0.02 | 84 | 1010.0 |
| 20260506125434 | 63 | 264 | 1.0 | 2.0 | 0.00 | 0.02 | 0.02 | 84 | 1010.1 |
| 20260506124932 | 63 | 295 | 0.0 | 1.0 | 0.00 | 0.02 | 0.02 | 84 | 1009.9 |
| 20260506124429 | 63 | 256 | 1.0 | 2.0 | 0.00 | 0.02 | 0.02 | 83 | 1009.7 |
| 20260506123927 | 62 | 218 | 0.0 | 1.0 | 0.00 | 0.02 | 0.02 | 84 | 1009.9 |
| 20260506123425 | 62 | 230 | 0.0 | 3.0 | 0.00 | 0.02 | 0.02 | 84 | 1009.6 |
| 20260506122922 | 63 | 276 | 0.0 | 2.0 | 0.07 | 0.02 | 0.02 | 83 | 1009.6 |
| 20260506122419 | 63 | 65 | 0.0 | 1.0 | 0.07 | 0.02 | 0.02 | 83 | 1009.9 |
| 20260506121918 | 63 | 279 | 0.0 | 1.0 | 0.05 | 0.01 | 0.01 | 81 | 1009.9 |
| 20260506121414 | 63 | 268 | 0.0 | 2.0 | 0.00 | 0.00 | 0.00 | 78 | 1010.4 |